Osceola, IA

3:49 AM CST on December 08, 2016 (GMT -0600)
Osceola Municipal

Weather History for KI75 - May, 2013

Change the Weather History Date:

Wednesday, May 22, 2013

  Actual Average (KLWD) Record (KLWD)
Temperature  
Mean Temperature 57 °F 63 °F  
Max Temperature 61 °F 73 °F 90 °F (1970)
Min Temperature 53 °F 53 °F 36 °F (1963)
Degree Days  
Heating Degree Days 8 4  
Month to date heating degree days 140  
Since 1 July heating degree days 6035  
Cooling Degree Days 0 2  
Month to date cooling degree days 24  
Year to date cooling degree days 31  
Growing Degree Days 7 (Base 50)    
Moisture  
Dew Point 50 °F    
Average Humidity 83    
Maximum Humidity 89    
Minimum Humidity 75    
Precipitation  
Precipitation 0.02 in 0.18 in 1.14 in (1984)
Month to date precipitation 3.69  
Sea Level Pressure  
Sea Level Pressure 29.76 in    
Wind  
Wind Speed 9 mph (West)    
Max Wind Speed 18 mph    
Max Gust Speed 24 mph    
Visibility 10 miles    
Events Rain    
T = Trace of Precipitation, MM = Missing Value Source: NWS Daily Summary

Daily Weather History Graph

Daily Weather History Graph

Search for Another Location

Airport or City:

Trip Planner

Search our weather history database for the weather conditions in past years. The results will help you decide how hot, cold, wet, or windy it might be!

Date:

Astronomy

May. 22, 2013 Rise Set
Actual Time 5:50 AM CDT 8:32 PM CDT
Civil Twilight 5:18 AM CDT 9:04 PM CDT
Nautical Twilight 4:38 AM CDT 9:45 PM CDT
Astronomical Twilight 3:52 AM CDT 10:31 PM CDT
Moon 5:54 PM CDT (5/22) 3:56 AM CDT (5/22)
Length of Visible Light 15h 46m
Length of Day
14h 42m
Waxing Gibbous, 91% of the Moon is Illuminated
May 22
Waxing Gibbous
May 24
Full
May 31
Last Quarter
Jun 8
New
Jun 16
First Quarter

Hourly Weather History & Observations

Time (CDT) Temp. Dew Point Humidity Pressure Visibility Wind Dir Wind Speed Gust Speed Precip Events Conditions
12:15 AM 54.1 °F 48.9 °F 82% 29.70 in 10.0 mi SSW 4.6 mph - N/A   Scattered Clouds
12:35 AM 54.0 °F 48.9 °F 83% 29.69 in 10.0 mi SW 5.8 mph - N/A   Scattered Clouds
12:55 AM 54.5 °F 49.5 °F 83% 29.69 in 10.0 mi SSW 4.6 mph - N/A   Clear
1:15 AM 54.5 °F 49.1 °F 82% 29.70 in 10.0 mi SSW 5.8 mph - N/A   Clear
1:35 AM 54.0 °F 49.3 °F 84% 29.70 in 10.0 mi SSW 4.6 mph - N/A   Scattered Clouds
1:55 AM 54.3 °F 50.0 °F 85% 29.70 in 10.0 mi SSW 4.6 mph - N/A   Mostly Cloudy
2:15 AM 54.0 °F 50.0 °F 86% 29.70 in 10.0 mi SW 5.8 mph - N/A   Mostly Cloudy
2:35 AM 54.7 °F 50.9 °F 87% 29.69 in 10.0 mi WSW 8.1 mph - N/A   Scattered Clouds
2:55 AM 54.7 °F 50.9 °F 87% 29.70 in 10.0 mi West 8.1 mph - N/A   Clear
3:15 AM 54.5 °F 50.9 °F 88% 29.69 in 10.0 mi West 6.9 mph - N/A   Mostly Cloudy
3:35 AM 54.5 °F 50.5 °F 86% 29.69 in 10.0 mi WSW 8.1 mph - N/A   Scattered Clouds
3:55 AM 54.5 °F 50.5 °F 86% 29.69 in 10.0 mi WSW 8.1 mph - N/A   Mostly Cloudy
4:15 AM 54.9 °F 50.4 °F 85% 29.69 in 10.0 mi West 9.2 mph - N/A   Overcast
4:35 AM 54.7 °F 50.2 °F 85% 29.69 in 10.0 mi West 6.9 mph - N/A   Overcast
4:55 AM 54.5 °F 50.4 °F 86% 29.68 in 10.0 mi West 5.8 mph - N/A   Overcast
5:15 AM 54.5 °F 50.4 °F 86% 29.68 in 10.0 mi West 5.8 mph - N/A   Overcast
5:35 AM 54.5 °F 50.2 °F 85% 29.68 in 10.0 mi West 6.9 mph - N/A   Overcast
5:55 AM 54.1 °F 49.6 °F 85% 29.68 in 10.0 mi West 12.7 mph - N/A   Overcast
6:15 AM 53.8 °F 49.1 °F 84% 29.68 in 10.0 mi West 11.5 mph - N/A   Overcast
6:35 AM 53.8 °F 48.7 °F 83% 29.69 in 10.0 mi West 8.1 mph - N/A   Overcast
6:55 AM 53.6 °F 48.6 °F 83% 29.69 in 10.0 mi West 11.5 mph - N/A   Overcast
7:15 AM 53.8 °F 48.7 °F 83% 29.69 in 10.0 mi WSW 10.4 mph - N/A   Overcast
7:35 AM 53.8 °F 49.1 °F 84% 29.69 in 10.0 mi West 13.8 mph - N/A   Overcast
7:55 AM 54.3 °F 49.3 °F 83% 29.70 in 10.0 mi West 11.5 mph - N/A   Overcast
8:15 AM 54.1 °F 49.3 °F 84% 29.70 in 10.0 mi West 10.4 mph - N/A   Overcast
8:35 AM 54.7 °F 49.8 °F 84% 29.71 in 10.0 mi WSW 12.7 mph - N/A   Overcast
8:55 AM 54.5 °F 49.6 °F 84% 29.71 in 10.0 mi West 10.4 mph - N/A   Overcast
9:15 AM 53.8 °F 50.2 °F 88% 29.72 in 5.0 mi WSW 11.5 mph - N/A   Overcast
9:35 AM 54.5 °F 50.4 °F 86% 29.72 in 10.0 mi WSW 11.5 mph 16.1 mph N/A   Overcast
9:55 AM 54.9 °F 50.2 °F 84% 29.73 in 10.0 mi WSW 10.4 mph - N/A   Overcast
10:15 AM 54.5 °F 50.7 °F 87% 29.73 in 7.0 mi WSW 10.4 mph - N/A   Overcast
10:35 AM 54.5 °F 51.1 °F 88% 29.73 in 4.0 mi WSW 13.8 mph - N/A   Overcast
10:55 AM 55.4 °F 50.5 °F 84% 29.74 in 10.0 mi WSW 15.0 mph - N/A   Overcast
11:15 AM 55.8 °F 50.4 °F 82% 29.74 in 10.0 mi WSW 11.5 mph - N/A   Overcast
11:35 AM 55.9 °F 50.9 °F 83% 29.75 in 10.0 mi WSW 13.8 mph - N/A   Overcast
11:55 AM 56.1 °F 51.1 °F 83% 29.75 in 10.0 mi WSW 13.8 mph 19.6 mph N/A   Overcast
12:15 PM 55.8 °F 52.0 °F 87% 29.75 in 5.0 mi WSW 11.5 mph - N/A   Overcast
12:35 PM 56.3 °F 52.0 °F 85% 29.75 in 7.0 mi WSW 12.7 mph - N/A   Overcast
12:55 PM 58.1 °F 52.9 °F 83% 29.75 in 10.0 mi WSW 12.7 mph 19.6 mph N/A   Overcast
1:15 PM 58.6 °F 52.7 °F 81% 29.76 in 10.0 mi WSW 13.8 mph - N/A   Overcast
1:35 PM 58.5 °F 53.4 °F 83% 29.76 in 10.0 mi WSW 18.4 mph 24.2 mph N/A   Overcast
1:55 PM 60.8 °F 53.6 °F 77% 29.75 in 10.0 mi West 18.4 mph 24.2 mph N/A   Overcast
2:15 PM 61.5 °F 54.0 °F 76% 29.75 in 10.0 mi West 15.0 mph 20.7 mph N/A   Overcast
2:35 PM 60.8 °F 53.6 °F 77% 29.76 in 10.0 mi West 17.3 mph 21.9 mph N/A   Overcast
2:55 PM 58.5 °F 53.1 °F 82% 29.76 in 3.0 mi West 17.3 mph 23.0 mph N/A Rain Rain
3:15 PM 59.2 °F 55.9 °F 89% 29.77 in 10.0 mi West 17.3 mph 21.9 mph 0.02 in   Overcast
3:35 PM 58.3 °F 52.7 °F 82% 29.77 in 10.0 mi West 16.1 mph 19.6 mph 0.02 in   Overcast
3:55 PM 57.2 °F 52.2 °F 83% 29.78 in 10.0 mi West 13.8 mph 24.2 mph 0.02 in   Overcast
4:15 PM 56.5 °F 53.2 °F 89% 29.78 in 4.0 mi WNW 10.4 mph 19.6 mph N/A   Overcast
4:35 PM 56.5 °F 52.2 °F 85% 29.79 in 10.0 mi West 16.1 mph 21.9 mph N/A   Overcast
4:55 PM 57.2 °F 51.6 °F 82% 29.79 in 10.0 mi West 16.1 mph 19.6 mph N/A   Overcast
5:15 PM 57.2 °F 50.9 °F 79% 29.79 in 10.0 mi West 17.3 mph 21.9 mph N/A   Overcast
5:35 PM 56.3 °F 50.4 °F 80% 29.81 in 10.0 mi WNW 10.4 mph - N/A   Overcast
5:55 PM 56.7 °F 50.2 °F 79% 29.81 in 10.0 mi WNW 10.4 mph - N/A   Overcast
6:15 PM 56.1 °F 49.3 °F 78% 29.82 in 10.0 mi WNW 11.5 mph 17.3 mph N/A   Overcast
6:35 PM 56.5 °F 49.3 °F 77% 29.82 in 10.0 mi WNW 8.1 mph - N/A   Overcast
6:55 PM 56.3 °F 48.4 °F 75% 29.83 in 10.0 mi WNW 10.4 mph - N/A   Overcast
7:15 PM 55.6 °F 49.1 °F 79% 29.83 in 10.0 mi WNW 6.9 mph - N/A   Overcast
7:35 PM 55.2 °F 49.3 °F 80% 29.84 in 7.0 mi WNW 8.1 mph - N/A   Overcast
7:55 PM 54.5 °F 49.6 °F 84% 29.84 in 10.0 mi West 8.1 mph - N/A   Overcast
8:15 PM 54.9 °F 49.5 °F 82% 29.85 in 10.0 mi West 8.1 mph - N/A   Overcast
8:35 PM 55.4 °F 49.5 °F 80% 29.85 in 10.0 mi West 8.1 mph - N/A   Overcast
8:55 PM 55.0 °F 49.8 °F 83% 29.86 in 10.0 mi West 6.9 mph - N/A   Overcast
9:15 PM 55.0 °F 49.6 °F 82% 29.86 in 10.0 mi West 8.1 mph - N/A   Overcast
9:35 PM 54.9 °F 48.7 °F 80% 29.87 in 10.0 mi West 8.1 mph - N/A   Overcast
9:55 PM 54.5 °F 48.4 °F 80% 29.88 in 10.0 mi West 8.1 mph - N/A   Mostly Cloudy
10:15 PM 54.1 °F 48.4 °F 81% 29.88 in 10.0 mi West 8.1 mph - N/A   Overcast
10:35 PM 54.0 °F 48.4 °F 81% 29.88 in 10.0 mi West 8.1 mph - N/A   Overcast
10:55 PM 54.0 °F 48.6 °F 82% 29.89 in 10.0 mi West 8.1 mph - N/A   Overcast
11:15 PM 54.0 °F 48.6 °F 82% 29.89 in 10.0 mi West 9.2 mph - N/A   Overcast
11:35 PM 54.0 °F 48.4 °F 81% 29.90 in 10.0 mi WNW 8.1 mph - N/A   Overcast
11:55 PM 53.8 °F 48.0 °F 81% 29.90 in 10.0 mi NW 13.8 mph 17.3 mph N/A   Overcast